Погода в Мирамаре

Аргентина     38°15′52″S   57°50′19″W
темп.,
°C
ветер,
м/с
пор.,
м/с
влажн.,
%
обл.,
%
осадки,
мм/ч
давл.,
гПа
погр.,
м
24 января, вс
вс2400:00+24с710710 0.0 1013145
03:00+22с610720 0.0 1013156
06:00+21ссз59830 0.0 1012172
09:00+25ссз35620 0.0 1013138
12:00+27в64580 0.0 1012675
15:00+26всв910630 0.0 1010553
18:00+26св9136261 0.0 1009289
21:00+24ссв9156880 0.0 1009265
25 января, пн
пн2500:00+22ссв9147414 0.0 1009293
03:00+21с815807 0.0 1009339
06:00+20с714860 0.0 1007390
09:00+24с710680 0.0 1007189
12:00+30с47430 0.0 1005540
15:00+30св88450 0.0 10031004
18:00+28св813540 0.0 1001294
21:00+26св9146017 0.0 1003230
26 января, вт
вт2600:00+22юв117842 0.0 100524
03:00+20вюв799344 0.0 1005214
06:00+20вюв9129383 0.0 1005311
09:00+21в699392 1.9 1005361
12:00+21юв6689100 0.9 1006275
15:00+20юв7892100 0.9 1004323
18:00+20вюв5792100 0.0 1004300
21:00+20вюв3495100 0.0 1005123
27 января, ср
ср2700:00+20вюв4597100 0.0 1005215
03:00+20ю4494100 0.1 1005247
06:00+19ююв5593100 0.1 1005302
09:00+20ююв4586100 0.1 1006359
12:00+20юв55856 0.0 1005344
15:00+20в678541 0.0 1003319
18:00+20в8108786 0.0 1001447
21:00+20св469377 0.0 1002309
28 января, чт
чт2800:00+20ююз239342 0.0 100439
03:00+19ююз888971 0.1 1004491
06:00+19ююз458744 0.1 1004513
09:00+19ю568229 0.2 1006569
12:00+19ю667313 0.0 1006513
15:00+19ююв556940 0.0 1005534
18:00+19вюв787271 0.0 1005469
21:00+18в787637 0.0 1006397